Regional Weather Roundup
Issued by NWS

Home | Current Version | Previous Version | Graphics & Text | Print | Product List | Glossary Off
Versions: 1 2 3 4 5 6 7 8 9 10 11 12 13 14 15 16 17 18 19 20 21 22 23 24 25 26 27 28 29 30 31 32 33 34 35 36 37 38 39 40 41 42 43 44 45 46 47 48 49 50

000
ASUS43 KDTX 232101
RWRMI
MICHIGAN HOURLY REGIONAL WEATHER ROUNDUP
NATIONAL WEATHER SERVICE DETROIT/PONTIAC MI
500 PM EDT TUE MAY 23 2017

NOTE: "FAIR" INDICATES FEW OR NO CLOUDS BELOW 12,000 FEET WITH NO
SIGNIFICANT WEATHER AND/OR OBSTRUCTION TO VISIBILITY.

MIZ047>049-052>055-059>063-066>070-074>076-081>083-232200-
SOUTHEAST LOWER MICHIGAN

CITY           SKY/WX    TMP DP  RH WIND       PRES   REMARKS
ADRIAN         LGT RAIN  66  53  63 NW5       29.76S
ALMA           CLOUDY    62  57  82 SW7G20    29.78S
ANN ARBOR      CLOUDY    70  50  49 S3        29.74F
BAD AXE        CLOUDY    64  60  85 NE6       29.77F
CARO           CLOUDY    67  52  57 S9        29.76S
DETROIT CITY   SUNNY     73  48  41 SE8       29.75F
DETROIT        PTSUNNY   72  45  37 SE6       29.75F
FLINT          CLOUDY    65  53  65 NW9       29.77F
GROSSE ILE     MOSUNNY   70  49  46 S6        29.74F
HILLSDALE      CLOUDY    66  48  52 CALM      29.75F
HOWELL         CLOUDY    68  51  55 N3        29.76F

CITY           SKY/WX    TMP DP  RH WIND       PRES   REMARKS
JACKSON        CLOUDY    65  54  67 N8        29.76S
LAMBERTVILLE   CLOUDY    70  49  48 E5        29.74F
LANSING        LGT RAIN  62  54  74 NW8       29.78F
LAPEER         CLOUDY    69  50  50 N3        29.77S
MASON          LGT RAIN  63  54  73 NW6       29.77S
MONROE         CLOUDY    70  45  41 E9        29.74F
MT. CLEMENS    PTSUNNY   70  50  49 SE9       29.74F
PONTIAC        CLOUDY    69  49  48 S5        29.75F
PORT HOPE        N/A     56  53  90 SE7       29.78R
PORT HURON     CLOUDY    70  46  43 S5        29.77S
TRI CITIES     LGT RAIN  61  57  87 SW15      29.76R
MIDLAND        CLOUDY    60  58  92 CALM      29.76R
TROY           CLOUDY    72  36  26 SE5       29.77F
SAGINAW HB     CLOUDY    68  50  52 S10       29.75F
$$
MIZ043>046-050>051-056>058-064>065-071>073-077>080-232200-
SOUTHWEST LOWER MICHIGAN

CITY           SKY/WX    TMP DP  RH WIND       PRES   REMARKS
BATTLE CREEK   LGT RAIN  61  57  87 N9        29.78F
BENTON HARBOR  CLOUDY    62  57  83 E7        29.75F
BIG RAPIDS     CLOUDY    64  49  59 SW15      29.74R
COLDWATER      LGT RAIN  62  56  81 N7        29.76S
FREMONT        CLOUDY    62  51  68 W7        29.76S
HOLLAND        LGT RAIN  60  56  86 SE6       29.77F
GRAND RAPIDS   LGT RAIN  61  57  87 S8        29.78S
IONIA          LGT RAIN  62  56  81 SW8       29.78S
KALAMAZOO      LGT RAIN  61  55  81 N6        29.77F
LUDINGTON      MOSUNNY   56  53  87 W7        29.74F
MARSHALL       LGT RAIN  62  58  87 CALM      29.77S
MOUNT PLEASANT CLOUDY    63  54  73 S5        29.75S
MUSKEGON       CLOUDY    62  52  69 S8        29.77S
SOUTH HAVEN    CLOUDY    62  58  86 NE5       29.75F
$$
MIZ016>042-232200-
NORTHERN LOWER MICHIGAN

CITY           SKY/WX    TMP DP  RH WIND       PRES   REMARKS
ALPENA         CLOUDY    60  49  66 E6        29.78F
BEAVER ISLAND  PTSUNNY   61  45  55 N8        29.78F
BELLAIRE       MOSUNNY   67  48  50 NE8       29.75S
CADILLAC       MOSUNNY   66  53  63 NE9       29.72F
CHARLEVOIX     CLOUDY    56  44  64 N9        29.80S
FRANKFORT      PTSUNNY   62  49  62 N5        29.75S
GAYLORD        CLOUDY    64  47  53 NE9       29.75F
GRAYLING       CLOUDY    62  54  74 NE9       29.76S
HARBOR SPRINGS CLOUDY    63  47  57 NE9       29.76F
HOUGHTON LAKE  CLOUDY    63  53  70 NE6       29.74S
MANISTEE       PTSUNNY   58  53  84 W10       29.74S
OSCODA         CLOUDY    57  51  80 NE9       29.78S
PELLSTON       CLOUDY    63  41  44 NE6       29.78F
ROGERS CITY    CLOUDY    52  47  83 NE3       29.80F
TRAVERSE CITY  CLOUDY    61  48  62 N6        29.75F
$$
MIZ007>008-015-232200-
EASTERN UPPER MICHIGAN

CITY           SKY/WX    TMP DP  RH WIND       PRES   REMARKS
KINROSS        PTSUNNY   61  45  55 N12       29.79F
MACKINAC ISLAN CLOUDY    59  46  62 NE5       29.78F
NEWBERRY       PTSUNNY   58  48  69 N7        29.79F
S. S. MARIE    CLOUDY    63  46  54 NW8       29.78F
MUNISING         N/A     47  43  86 N6        29.83F
$$
MIZ004>006-011>014-085-232200-
CENTRAL UPPER MICHIGAN

CITY           SKY/WX    TMP DP  RH WIND       PRES   REMARKS
MANISTIQUE     CLOUDY    60  44  54 NE7       29.78F
ESCANABA       LGT RAIN  55  50  83 SW3       29.80F
MENOMINEE      LGT RAIN  51  47  86 NE8       29.80F
SAWYER-GWINN   PTSUNNY   52  43  71 NE12      29.83S
$$
MIZ001>003-009>011-084-232200-
WESTERN UPPER MICHIGAN

CITY           SKY/WX    TMP DP  RH WIND       PRES   REMARKS
IRON MOUNTAIN  CLOUDY    57  43  59 E3        29.78F
HOUGHTON       CLOUDY    52  43  71 SE3       29.85R
COPPER HARBOR    N/A     44  41  89 CALM      29.87S
IRONWOOD       PTSUNNY   54  45  71 N9        29.85R
$$

ABBREVIATIONS USED IN REMARKS
   TC - TEMPERATURE IN CELSIUS
  WCI - WIND CHILL INDEX
   HX - HEAT INDEX
  VSB - VISIBILITY




USA.gov is the U.S. government's official web portal to all federal, state and local government web resources and services.